FDX1409 KMEM-KMCO

Flight info

Callsign FDX1409
Flight time N/A
Altitude 33000
Route BBKNG7 KERMI VLKNN DEEDA GRNCH5
Aircraft B77L/H-SDE1E2E3FGHIJ2J3J4J5M1RWXY/LB1D1

Departure

Time 2026-05-05 00:27
Airport Memphis International Airport (KMEM)

Arrival

Time N/A
Airport Orlando International Airport (KMCO)
Time Latitude Longitude Altitude Speed Heading
2026-05-05 00:05 35.06094 -89.96108 335 ft 0 kts
2026-05-05 00:17 35.06072 -89.96110 330 ft 4 kts
2026-05-05 00:17 35.06055 -89.96110 330 ft 2 kts 327°
2026-05-05 00:17 35.06039 -89.96095 330 ft 4 kts 294°
2026-05-05 00:18 35.06036 -89.96069 330 ft 4 kts 266°
2026-05-05 00:18 35.06037 -89.96057 330 ft 0 kts 272°
2026-05-05 00:21 35.06037 -89.96065 330 ft 4 kts 271°
2026-05-05 00:21 35.06039 -89.96136 332 ft 12 kts 272°
2026-05-05 00:21 35.06042 -89.96237 335 ft 12 kts 272°
2026-05-05 00:22 35.06045 -89.96339 335 ft 12 kts 272°
2026-05-05 00:22 35.06045 -89.96440 335 ft 12 kts 260°
2026-05-05 00:22 35.05992 -89.96516 330 ft 12 kts 215°
2026-05-05 00:22 35.05930 -89.96582 335 ft 12 kts 242°
2026-05-05 00:23 35.05921 -89.96713 331 ft 17 kts 271°
2026-05-05 00:23 35.05924 -89.96861 335 ft 17 kts 272°
2026-05-05 00:23 35.05928 -89.97009 335 ft 17 kts 272°
2026-05-05 00:23 35.05933 -89.97155 334 ft 17 kts 272°
2026-05-05 00:24 35.05937 -89.97304 331 ft 17 kts 272°
2026-05-05 00:24 35.05940 -89.97435 335 ft 11 kts 266°
2026-05-05 00:24 35.05886 -89.97492 332 ft 11 kts 182°
2026-05-05 00:24 35.05804 -89.97485 333 ft 14 kts 179°
2026-05-05 00:25 35.05683 -89.97488 331 ft 18 kts 180°
2026-05-05 00:25 35.05560 -89.97486 329 ft 16 kts 179°
2026-05-05 00:25 35.05498 -89.97507 328 ft 0 kts 211°
2026-05-05 00:26 35.05486 -89.97518 328 ft 9 kts 218°
2026-05-05 00:26 35.05432 -89.97587 325 ft 12 kts 225°
2026-05-05 00:26 35.05351 -89.97614 327 ft 17 kts 181°
2026-05-05 00:26 35.05049 -89.97610 324 ft 77 kts 179°
2026-05-05 00:27 35.04296 -89.97593 326 ft 137 kts 179°
2026-05-05 00:27 35.03183 -89.97569 389 ft 175 kts 181°
2026-05-05 00:27 35.01971 -89.97540 957 ft 174 kts 181°
2026-05-05 00:27 35.00755 -89.97492 1610 ft 175 kts 180°
2026-05-05 00:28 34.99565 -89.97447 2337 ft 168 kts 181°
2026-05-05 00:28 34.98351 -89.97274 2599 ft 192 kts 166°
2026-05-05 00:28 34.97071 -89.96554 2963 ft 211 kts 158°
2026-05-05 00:28 34.95667 -89.95784 3237 ft 231 kts 164°
2026-05-05 00:29 34.94168 -89.94892 3574 ft 251 kts 142°
2026-05-05 00:29 34.93157 -89.93097 4265 ft 268 kts 114°
2026-05-05 00:29 34.92835 -89.90840 4933 ft 279 kts 97°
2026-05-05 00:29 34.92737 -89.88438 5588 ft 287 kts 96°
2026-05-05 00:30 34.92642 -89.86188 6298 ft 290 kts 96°
2026-05-05 00:30 34.92535 -89.83713 7013 ft 294 kts 95°
2026-05-05 00:30 34.92421 -89.81196 7713 ft 298 kts 95°
2026-05-05 00:30 34.92302 -89.78659 8430 ft 302 kts 95°
2026-05-05 00:31 34.92181 -89.76092 9178 ft 305 kts 95°
2026-05-05 00:31 34.92057 -89.73491 9874 ft 309 kts 95°
2026-05-05 00:31 34.91929 -89.70837 10436 ft 319 kts 94°
2026-05-05 00:31 34.91794 -89.68071 10633 ft 343 kts 94°
2026-05-05 00:32 34.91646 -89.65067 10818 ft 367 kts 94°
2026-05-05 00:32 34.91546 -89.61873 11069 ft 389 kts 91°
2026-05-05 00:32 34.91538 -89.58526 11664 ft 400 kts 90°
2026-05-05 00:32 34.91558 -89.55127 12430 ft 407 kts 90°
2026-05-05 00:33 34.91577 -89.51657 13306 ft 411 kts 89°
2026-05-05 00:33 34.91588 -89.48152 14118 ft 416 kts 89°
2026-05-05 00:33 34.91590 -89.44590 14892 ft 421 kts 89°
2026-05-05 00:33 34.91585 -89.41006 15655 ft 426 kts 89°
2026-05-05 00:34 34.91577 -89.37378 16076 ft 430 kts 89°
2026-05-05 00:34 34.91566 -89.33708 16677 ft 436 kts 89°
2026-05-05 00:34 34.91555 -89.30003 17484 ft 438 kts 89°
2026-05-05 00:34 34.91543 -89.26278 18299 ft 441 kts 89°
2026-05-05 00:35 34.91528 -89.22520 18941 ft 445 kts 89°
2026-05-05 00:35 34.91269 -89.18735 19470 ft 452 kts 99°
2026-05-05 00:35 34.90587 -89.15009 20028 ft 458 kts 103°
2026-05-05 00:35 34.89832 -89.11217 20640 ft 462 kts 102°
2026-05-05 00:36 34.89114 -89.07389 21258 ft 466 kts 102°
2026-05-05 00:36 34.88417 -89.03488 21871 ft 471 kts 101°
2026-05-05 00:36 34.88221 -89.02364 22035 ft 0 kts 101°
2026-05-05 00:36 34.88107 -89.01648 22205 ft 471 kts 100°
2026-05-05 00:37 34.87469 -88.97700 22685 ft 479 kts 101°
2026-05-05 00:37 34.86788 -88.93705 23240 ft 484 kts 101°
2026-05-05 00:37 34.86088 -88.89679 23790 ft 487 kts 101°
2026-05-05 00:37 34.85377 -88.85610 24313 ft 491 kts 101°
2026-05-05 00:38 34.84663 -88.81510 24770 ft 496 kts 101°
2026-05-05 00:38 34.83948 -88.77387 25208 ft 501 kts 101°
2026-05-05 00:38 34.83234 -88.73264 25638 ft 506 kts 101°
2026-05-05 00:38 34.82497 -88.69006 26101 ft 510 kts 100°
2026-05-05 00:39 34.81771 -88.64817 26559 ft 514 kts 100°
2026-05-05 00:39 34.81029 -88.60545 27010 ft 518 kts 100°
2026-05-05 00:39 34.80280 -88.56245 27449 ft 522 kts 100°
2026-05-05 00:39 34.79522 -88.51899 27878 ft 526 kts 100°
2026-05-05 00:40 34.78758 -88.47531 28291 ft 530 kts 100°
2026-05-05 00:40 34.77986 -88.43130 28699 ft 534 kts 100°
2026-05-05 00:40 34.77205 -88.38690 29100 ft 537 kts 100°
2026-05-05 00:40 34.76420 -88.34232 29501 ft 540 kts 100°
2026-05-05 00:41 34.75629 -88.29759 30008 ft 540 kts 100°
2026-05-05 00:41 34.74840 -88.25295 30451 ft 540 kts 100°
2026-05-05 00:41 34.74049 -88.20838 30826 ft 542 kts 100°
2026-05-05 00:41 34.72918 -88.16449 31025 ft 548 kts 114°
2026-05-05 00:42 34.70932 -88.12505 31270 ft 551 kts 131°
2026-05-05 00:42 34.68235 -88.09207 31595 ft 548 kts 139°
2026-05-05 00:42 34.65451 -88.06031 31869 ft 552 kts 139°
2026-05-05 00:42 34.62688 -88.02864 32164 ft 554 kts 138°
2026-05-05 00:43 34.59894 -87.99615 32511 ft 556 kts 137°
2026-05-05 00:43 34.57125 -87.96348 32835 ft 558 kts 137°
2026-05-05 00:43 34.54366 -87.93062 32907 ft 564 kts 137°
2026-05-05 00:44 34.48763 -87.86340 32942 ft 563 kts 137°
2026-05-05 00:44 34.43222 -87.79698 32935 ft 557 kts 137°
2026-05-05 00:45 34.37722 -87.73139 32946 ft 557 kts 137°
2026-05-05 00:45 34.32177 -87.66551 32950 ft 558 kts 137°
2026-05-05 00:46 34.26631 -87.59974 32954 ft 559 kts 137°
2026-05-05 00:46 34.22013 -87.54504 32948 ft 561 kts 137°
2026-05-05 00:47 34.16420 -87.47890 32961 ft 562 kts 137°
2026-05-05 00:47 34.10824 -87.41286 32969 ft 562 kts 137°
2026-05-05 00:48 34.05249 -87.34717 32968 ft 557 kts 137°
2026-05-05 00:48 33.99714 -87.28209 32983 ft 554 kts 137°
2026-05-05 00:49 33.94223 -87.21767 32995 ft 554 kts 137°
2026-05-05 00:49 33.88693 -87.15292 32979 ft 554 kts 137°
2026-05-05 00:50 33.83165 -87.08831 32985 ft 555 kts 137°
2026-05-05 00:50 33.77621 -87.02362 32985 ft 556 kts 137°
2026-05-05 00:51 33.72053 -86.95876 32999 ft 557 kts 137°
2026-05-05 00:51 33.66480 -86.89489 33017 ft 556 kts 141°
2026-05-05 00:52 33.60414 -86.83734 33014 ft 555 kts 146°
2026-05-05 00:52 33.54241 -86.78127 33013 ft 555 kts 146°
2026-05-05 00:53 33.48094 -86.72509 33015 ft 555 kts 146°
2026-05-05 00:53 33.42007 -86.66900 33016 ft 555 kts 145°
2026-05-05 00:54 33.35902 -86.61267 33027 ft 555 kts 145°
2026-05-05 00:54 33.29771 -86.55625 32998 ft 555 kts 146°
2026-05-05 00:55 33.23637 -86.49995 33015 ft 555 kts 146°
2026-05-05 00:55 33.17502 -86.44377 33024 ft 555 kts 146°
2026-05-05 00:56 33.11414 -86.38811 33027 ft 555 kts 146°
2026-05-05 00:56 33.05287 -86.33218 33025 ft 555 kts 146°
2026-05-05 00:57 32.99158 -86.27633 33019 ft 555 kts 146°
2026-05-05 00:57 32.93025 -86.22058 33010 ft 555 kts 146°
2026-05-05 00:58 32.86881 -86.16480 32997 ft 555 kts 146°
2026-05-05 00:58 32.80757 -86.10931 33002 ft 555 kts 146°
2026-05-05 00:59 32.74610 -86.05370 33000 ft 556 kts 146°
2026-05-05 00:59 32.68462 -85.99819 33002 ft 556 kts 146°
2026-05-05 01:00 32.62279 -85.94245 33010 ft 556 kts 146°
2026-05-05 01:00 32.56112 -85.88697 33008 ft 557 kts 146°
2026-05-05 01:01 32.49933 -85.83147 33016 ft 557 kts 146°
2026-05-05 01:01 32.43747 -85.77600 33020 ft 557 kts 146°
2026-05-05 01:02 32.37601 -85.72099 33003 ft 556 kts 146°
2026-05-05 01:02 32.31431 -85.66586 33009 ft 556 kts 146°
2026-05-05 01:03 32.25250 -85.61073 33014 ft 556 kts 147°
2026-05-05 01:03 32.19070 -85.55572 33021 ft 556 kts 147°
2026-05-05 01:04 32.12885 -85.50075 33022 ft 556 kts 147°
2026-05-05 01:04 32.03634 -85.41870 33036 ft 557 kts 147°
2026-05-05 01:05 31.97438 -85.36388 33038 ft 557 kts 147°
2026-05-05 01:05 31.91226 -85.30899 33041 ft 558 kts 147°
2026-05-05 01:06 31.85054 -85.25456 33045 ft 558 kts 147°
2026-05-05 01:06 31.78840 -85.19985 33040 ft 558 kts 147°
2026-05-05 01:07 31.72619 -85.14516 33038 ft 557 kts 147°
2026-05-05 01:07 31.66409 -85.09066 33038 ft 557 kts 147°
2026-05-05 01:08 31.60202 -85.03608 33040 ft 556 kts 144°
2026-05-05 01:08 31.57445 -85.00401 33069 ft 561 kts 129°
2026-05-05 01:08 31.55411 -84.96501 33039 ft 561 kts 110°
2026-05-05 01:09 31.52942 -84.87884 33050 ft 559 kts 106°
2026-05-05 01:09 31.50448 -84.79276 33065 ft 562 kts 107°
2026-05-05 01:10 31.47814 -84.70651 33064 ft 564 kts 108°
2026-05-05 01:10 31.45138 -84.62033 33046 ft 564 kts 108°
2026-05-05 01:11 31.42457 -84.53387 33049 ft 562 kts 108°
2026-05-05 01:11 31.39795 -84.44793 33044 ft 561 kts 108°
2026-05-05 01:12 31.37133 -84.36219 33048 ft 559 kts 108°
2026-05-05 01:12 31.34474 -84.27678 33059 ft 558 kts 108°
2026-05-05 01:13 31.31814 -84.19159 33044 ft 557 kts 109°
2026-05-05 01:13 31.29165 -84.10697 33040 ft 557 kts 109°
2026-05-05 01:14 31.26490 -84.02182 33037 ft 557 kts 109°
2026-05-05 01:14 31.23815 -83.93693 33060 ft 557 kts 109°
2026-05-05 01:15 31.21151 -83.85257 33057 ft 557 kts 109°
2026-05-05 01:15 31.18467 -83.76778 33060 ft 557 kts 109°
2026-05-05 01:16 31.15770 -83.68282 33059 ft 557 kts 109°
2026-05-05 01:16 31.13079 -83.59823 33058 ft 556 kts 109°
2026-05-05 01:17 31.10372 -83.51340 33053 ft 556 kts 110°
2026-05-05 01:17 31.07669 -83.42892 33043 ft 556 kts 110°
2026-05-05 01:18 31.04956 -83.34432 33037 ft 555 kts 110°
2026-05-05 01:18 31.02243 -83.25996 33035 ft 555 kts 110°
2026-05-05 01:19 30.99541 -83.17615 33034 ft 554 kts 110°
2026-05-05 01:19 30.96826 -83.09214 33037 ft 554 kts 110°
2026-05-05 01:20 30.94100 -83.00800 32852 ft 554 kts 110°
2026-05-05 01:20 30.92741 -82.96612 32714 ft 552 kts 111°
2026-05-05 01:20 30.91383 -82.92432 32610 ft 549 kts 111°
2026-05-05 01:21 30.89963 -82.88319 32458 ft 544 kts 118°
2026-05-05 01:21 30.87950 -82.84639 32302 ft 537 kts 134°
2026-05-05 01:21 30.85277 -82.81772 32159 ft 521 kts 149°
2026-05-05 01:21 30.82330 -82.79293 32077 ft 523 kts 149°
2026-05-05 01:22 30.79382 -82.76768 31967 ft 528 kts 148°
2026-05-05 01:22 30.76449 -82.74196 31847 ft 529 kts 148°
2026-05-05 01:22 30.73524 -82.71584 31720 ft 527 kts 147°
2026-05-05 01:22 30.70627 -82.68970 31571 ft 526 kts 147°
2026-05-05 01:23 30.67736 -82.66353 31396 ft 525 kts 147°
2026-05-05 01:23 30.64854 -82.63746 31231 ft 524 kts 147°
2026-05-05 01:23 30.62022 -82.61189 31062 ft 521 kts 148°
2026-05-05 01:23 30.59160 -82.58611 30896 ft 519 kts 148°
2026-05-05 01:24 30.56306 -82.56047 30721 ft 516 kts 148°
2026-05-05 01:24 30.53474 -82.53505 30560 ft 513 kts 148°
2026-05-05 01:24 30.50654 -82.50977 30382 ft 510 kts 148°
2026-05-05 01:24 30.47848 -82.48464 30220 ft 508 kts 148°
2026-05-05 01:25 30.45064 -82.45972 30019 ft 505 kts 148°
2026-05-05 01:25 30.42288 -82.43490 29823 ft 503 kts 148°
2026-05-05 01:25 30.39522 -82.41018 29620 ft 500 kts 148°
2026-05-05 01:25 30.36808 -82.38595 29429 ft 498 kts 148°
2026-05-05 01:26 30.34035 -82.36119 29226 ft 495 kts 148°
2026-05-05 01:26 30.31341 -82.33716 29039 ft 493 kts 148°
2026-05-05 01:26 30.28630 -82.31299 28844 ft 491 kts 148°
2026-05-05 01:26 30.25924 -82.28888 28657 ft 489 kts 148°
2026-05-05 01:27 30.23238 -82.26497 28464 ft 487 kts 148°
2026-05-05 01:27 30.20489 -82.24276 28257 ft 476 kts 158°
2026-05-05 01:27 30.17459 -82.22960 28045 ft 456 kts 177°
2026-05-05 01:27 30.14371 -82.22441 27912 ft 447 kts 180°
2026-05-05 01:28 30.11288 -82.21916 27730 ft 449 kts 179°
2026-05-05 01:28 30.08198 -82.21339 27557 ft 451 kts 178°
2026-05-05 01:28 30.05099 -82.20733 27374 ft 452 kts 177°
2026-05-05 01:28 30.01996 -82.20114 27203 ft 453 kts 177°
2026-05-05 01:29 29.98883 -82.19492 27016 ft 453 kts 177°
2026-05-05 01:29 29.95776 -82.18875 26843 ft 453 kts 177°
2026-05-05 01:29 29.92712 -82.18269 26662 ft 452 kts 177°
2026-05-05 01:29 29.89612 -82.17656 26490 ft 450 kts 177°
2026-05-05 01:30 29.86516 -82.17039 26307 ft 449 kts 177°
2026-05-05 01:30 29.83440 -82.16425 26142 ft 447 kts 176°
2026-05-05 01:30 29.80374 -82.15812 25964 ft 445 kts 176°
2026-05-05 01:30 29.78400 -82.15418 25856 ft 444 kts 176°
2026-05-05 01:31 29.75321 -82.14804 25681 ft 442 kts 176°
2026-05-05 01:31 29.72282 -82.14199 25514 ft 441 kts 176°
2026-05-05 01:31 29.69259 -82.13598 25341 ft 439 kts 176°
2026-05-05 01:31 29.66254 -82.13001 25176 ft 438 kts 176°
2026-05-05 01:32 29.63284 -82.12411 25006 ft 436 kts 176°
2026-05-05 01:32 29.60288 -82.11816 24840 ft 435 kts 176°
2026-05-05 01:32 29.57344 -82.11232 24675 ft 434 kts 176°
2026-05-05 01:32 29.54372 -82.10643 24515 ft 433 kts 176°
2026-05-05 01:33 29.51394 -82.10053 24349 ft 432 kts 176°